Regional Weather Roundup
Issued by NWS

Home | Current Version | Previous Version | Text Only | Print | Product List | Glossary Off
Versions: 1 2 3 4 5 6 7 8 9 10 11 12 13 14 15 16 17 18 19 20 21 22 23 24 25 26 27 28 29 30 31 32 33 34 35 36 37 38 39 40 41 42 43 44 45 46 47 48 49 50

000
ASUS43 KTOP 280008
RWRKS

WEATHER ROUNDUP FOR KANSAS
NATIONAL WEATHER SERVICE GOODLAND KS
700 PM CDT WED MAY 27 2015

NOTE:  "FAIR" INDICATES FEW OR NO CLOUDS BELOW 12,000 FEET WITH NO
SIGNIFICANT WEATHER AND/OR OBSTRUCTIONS TO VISIBILITY.

KSZ001>006-013>018-027>032-041>047-280100-
NORTHWEST KANSAS

CITY           SKY/WX    TMP DP  RH WIND       PRES   REMARKS
GOODLAND       PTSUNNY   68  57  68 SE21G30   29.97R
6HR MIN TEMP:  67; 6HR MAX TEMP:  79; 6HR PCP: TRACE;

HAYS           CLOUDY    70  61  73 SE10      30.05R
HILL CITY      CLOUDY    68  62  81 SE16G22   29.99F
6HR MIN TEMP:  67; 6HR MAX TEMP:  77; 6HR PCP:  0.04;

RUSSELL        CLOUDY    72  64  76 SE7       30.02S
6HR MIN TEMP:  71; 6HR MAX TEMP:  79; 6HR PCP: TRACE;

$$

KSZ061>065-074>080-084>089-280100-
SOUTHWEST KANSAS

CITY           SKY/WX    TMP DP  RH WIND       PRES   REMARKS
DODGE CITY     CLOUDY    72  61  68 E28G38    29.96F
6HR MIN TEMP:  71; 6HR MAX TEMP:  81; 6HR PCP: TRACE;

ELKHART          N/A     66  51  58 NW10        N/A
GARDEN CITY    CLOUDY    71  61  70 SE20G30   29.91F
6HR MIN TEMP:  71; 6HR MAX TEMP:  81; 6HR PCP: TRACE;

GREAT BEND     CLOUDY    73  61  64 E8        30.01R
LIBERAL        PTSUNNY   72  59  64 SE22      29.96S
PRATT          CLOUDY    75  61  60 SE12      30.02S
$$

KSZ066>073-081>083-090>101-280100-
SOUTHEAST KANSAS

CITY           SKY/WX    TMP DP  RH WIND       PRES   REMARKS
CHANUTE        MOSUNNY   81  64  56 E7        30.03S
6HR MIN TEMP:  79; 6HR MAX TEMP:  83;

COFFEYVILLE    SUNNY     82  67  60 SE7       30.01F
6HR MIN TEMP:  80; 6HR MAX TEMP:  84;

HUTCHINSON     CLOUDY    79  62  56 SE10      30.00F
6HR MIN TEMP:  74; 6HR MAX TEMP:  83;

MEDICINE LODGE   N/A     78  63  59 SE8       29.98F
NEWTON         PTSUNNY   75  61  60 SE9       30.05F
PARSONS        SUNNY     82  67  60 SE3       30.03F
6HR MIN TEMP:  79; 6HR MAX TEMP:  84;

WICHITA INTL   PTSUNNY   80  63  55 SE8       30.00F
6HR MIN TEMP:  78; 6HR MAX TEMP:  83;

WICHITA JABRA  MOSUNNY   78  63  59 SE7       30.01F
6HR MIN TEMP:  76; 6HR MAX TEMP:  81;

WICHITA MCCONL MOSUNNY   80  65  59 E8        30.01F
WINFIELD       MOSUNNY   80  66  62 SE8       30.01F
6HR MIN TEMP:  77; 6HR MAX TEMP:  83;

$$

KSZ007>012-019>026-033>040-048>060-102>105-280100-
NORTHEAST KANSAS

CITY           SKY/WX    TMP DP  RH WIND       PRES   REMARKS
CONCORDIA      CLOUDY    76  58  53 S12       30.03S
6HR MIN TEMP:  76; 6HR MAX TEMP:  81;

EMPORIA        PTSUNNY   77  62  59 E7        30.04S
6HR MIN TEMP:  76; 6HR MAX TEMP:  81;

LAWRENCE       SUNNY     80  54  40 SE6       30.05F
6HR MIN TEMP:  79; 6HR MAX TEMP:  82;

MANHATTAN      PTSUNNY   78  61  55 SE8       30.03S
6HR MIN TEMP:  78; 6HR MAX TEMP:  82;

MARYSVILLE     MOSUNNY   75  55  50 SE5       30.03S
OLATHE IND     SUNNY     79  53  40 SE7       30.07S
6HR MIN TEMP:  77; 6HR MAX TEMP:  81;

OLATHE EXE     SUNNY     78  55  44 SE6       30.06F
6HR MIN TEMP:  77; 6HR MAX TEMP:  81;

SALINA         CLOUDY    78  62  57 E9        30.02S
6HR MIN TEMP:  78; 6HR MAX TEMP:  82;

TOPEKA BILLARD SUNNY     77  55  46 SE9       30.05S
6HR MIN TEMP:  77; 6HR MAX TEMP:  81;

TOPEKA FORBES  SUNNY     79  56  45 SE7       30.05F
6HR MIN TEMP:  79; 6HR MAX TEMP:  83;

$$


USA.gov is the U.S. government's official web portal to all federal, state and local government web resources and services.